This is the latest recevied weather packets stored in our database for station/object OK2ZI. If no packets are shown the sender has not sent any weather packets the latest 10 day(s).
| Time | Temp. | Humidity | Pressure | Rain* | Wind** | Luminosity | Snow |
|---|---|---|---|---|---|---|---|
| 1777914366 | 22.78° C | 34% | 1009 hPa | 0 mm | - | - | - |
| 1777914127 | 22.78° C | 34% | 1009 hPa | 0 mm | - | - | - |
| 1777913166 | 23.89° C | 32% | 1009 hPa | 0 mm | - | - | - |
| 1777912567 | 23.89° C | 33% | 1010 hPa | 0 mm | - | - | - |
| 1777912215 | 23.89° C | 33% | 1009 hPa | 0 mm | - | - | - |
| 1777909086 | 25° C | 35% | 1010 hPa | 0 mm | - | - | - |
| 1777908851 | 25.56° C | 34% | 1010 hPa | 0 mm | - | - | - |
| 1777908727 | 25.56° C | 34% | 1010 hPa | 0 mm | - | - | - |
| 1777908246 | 25.56° C | 33% | 1010 hPa | 0 mm | - | - | - |
| 1777907527 | 25.56° C | 35% | 1010 hPa | 0 mm | - | - | - |
| 1777906927 | 25.56° C | 36% | 1010 hPa | 0 mm | - | - | - |
| 1777904647 | 26.11° C | 35% | 1010 hPa | 0 mm | - | - | - |
| 1777903925 | 25.56° C | 36% | 1010 hPa | 0 mm | - | - | - |
| 1777903809 | 25.56° C | 37% | 1010 hPa | 0 mm | - | - | - |
| 1777903565 | 25.56° C | 36% | 1010 hPa | 0 mm | - | - | - |
| 1777903221 | 25.56° C | 37% | 1010 hPa | 0 mm | - | - | - |
| 1777902247 | 25° C | 38% | 1010 hPa | 0 mm | - | - | - |
| 1777901765 | 25.56° C | 36% | 1010 hPa | 0 mm | - | - | - |
| 1777901527 | 25.56° C | 36% | 1010 hPa | 0 mm | - | - | - |
| 1777900927 | 25.56° C | 39% | 1010 hPa | 0 mm | - | - | - |
| 1777900567 | 25° C | 38% | 1010 hPa | 0 mm | - | - | - |
| 1777900327 | 25° C | 36% | 1011 hPa | 0 mm | - | - | - |
| 1777900209 | 25.56° C | 36% | 1011 hPa | 0 mm | - | - | - |
| 1777899726 | 25° C | 37% | 1010 hPa | 0 mm | - | - | - |
| 1777899367 | 25° C | 37% | 1011 hPa | 0 mm | - | - | - |
* Rain latest hour (hover to see other rain measurements)
** Current wind speed in m/s (hover to see current wind gust speed)